User: anonymous   Login
Location: Unspecified
(0.0000°N, 0.0000°E)
Time: 12:33:33
(UTC+00:00)
Language:

CLOUDSAT - Orbit

View from above orbital plane
View from above orbital plane
View from above satellite
View from above satellite

Ground track
Ground track

The orbit data is extracted from the following two-line orbital elements,

1 29107U 06016A   16150.84463820  .00000136  00000-0  40117-4 0  9997
2 29107  98.1974  94.3546 0001750 106.8706 253.2685 14.57119329536604
Epoch (UTC): 29 May 2016 20:16:16
Eccentricity: 0.0001750
inclination: 98.1974°
perigee height: 701 km
apogee height: 704 km
right ascension of ascending node: 94.3546°
argument of perigee: 106.8706°
revolutions per day: 14.57119329
mean anomaly at epoch: 253.2685°
orbit number at epoch: 53660

The dashed part of the orbit path shows where the satellite is in the earth's shadow,  

DLR